When you browse on this site, cookies collect data to enhance your experience and personalize the content and advertising you see.
Visit our Privacy Policy to learn more. By continuing to use the site, you agree to this use of cookies and data.
  • In Hungary
  • List of Countries
  • For 7 days
  • Water Temperature
  • Satellite Maps
  • Weather Map
  • News
  • Weather Widgets
  • user-avatar
    Login

    Hourly Weather Sant Pere de Ribes

    Today, 18 November, Sunday

    Time Temperature Precipitation Wind Pressure Humidity
    00:00 +12°C° 0 mm 4 mps 747 mmHg 86%
    01:00 +12°C° 0.4 mm 5 mps 747 mmHg 86%
    02:00 +12°C° 0.4 mm 5 mps 747 mmHg 86%
    03:00 +10°C° 0.4 mm 5 mps 747 mmHg 86%
    04:00 +10°C° 0.2 mm 5 mps 747 mmHg 85%
    05:00 +10°C° 0.2 mm 6 mps 747 mmHg 85%
    06:00 +10°C° 0.2 mm 6 mps 746 mmHg 85%
    07:00 +11°C° 0.1 mm 6 mps 746 mmHg 83%
    08:00 +11°C° 0.1 mm 6 mps 747 mmHg 82%
    09:00 +12°C° 0.1 mm 7 mps 747 mmHg 80%
    10:00 +12°C° 0.2 mm 7 mps 746 mmHg 78%
    11:00 +12°C° 0.2 mm 7 mps 746 mmHg 77%
    12:00 +14°C° 0.2 mm 7 mps 746 mmHg 75%
    13:00 +14°C° 0.4 mm 7 mps 746 mmHg 76%
    14:00 +12°C° 0.4 mm 7 mps 746 mmHg 78%
    15:00 +12°C° 0.4 mm 7 mps 745 mmHg 79%
    16:00 +12°C° 0.5 mm 7 mps 745 mmHg 80%
    17:00 +12°C° 0.5 mm 7 mps 745 mmHg 82%
    18:00 +11°C° 0.5 mm 7 mps 745 mmHg 83%
    19:00 +11°C° 0.5 mm 7 mps 745 mmHg 83%
    20:00 +11°C° 0.5 mm 7 mps 745 mmHg 84%
    21:00 +11°C° 0.5 mm 7 mps 745 mmHg 85%
    22:00 +10°C° 0.1 mm 7 mps 744 mmHg 85%
    23:00 +10°C° 0.1 mm 7 mps 744 mmHg 86%

    Tomorrow, 19 November, Monday

    Time Temperature Precipitation Wind Pressure Humidity
    00:00 +10°C° 0.1 mm 7 mps 744 mmHg 86%
    01:00 +10°C° 0.1 mm 7 mps 743 mmHg 85%
    02:00 +10°C° 0.1 mm 7 mps 742 mmHg 85%
    03:00 +10°C° 0.1 mm 7 mps 742 mmHg 84%
    04:00 +10°C° 0.1 mm 7 mps 741 mmHg 85%
    05:00 +9°C° 0.1 mm 7 mps 741 mmHg 85%
    06:00 +9°C° 0.1 mm 7 mps 741 mmHg 86%
    07:00 +10°C° 0.1 mm 7 mps 740 mmHg 82%
    08:00 +10°C° 0.1 mm 7 mps 740 mmHg 78%
    09:00 +11°C° 0.1 mm 7 mps 740 mmHg 74%
    10:00 +11°C° 0.1 mm 7 mps 739 mmHg 70%
    11:00 +12°C° 0.1 mm 7 mps 739 mmHg 66%
    12:00 +14°C° 0.1 mm 7 mps 739 mmHg 62%
    13:00 +14°C° 0 mm 6 mps 738 mmHg 62%
    14:00 +14°C° 0 mm 5 mps 738 mmHg 61%
    15:00 +14°C° 0 mm 5 mps 737 mmHg 61%
    16:00 +13°C° 0.1 mm 4 mps 737 mmHg 65%
    17:00 +12°C° 0.1 mm 4 mps 737 mmHg 68%
    18:00 +12°C° 0.1 mm 3 mps 737 mmHg 72%
    19:00 +12°C° 0.1 mm 3 mps 737 mmHg 74%
    20:00 +12°C° 0.1 mm 2 mps 738 mmHg 76%
    21:00 +12°C° 0.1 mm 2 mps 738 mmHg 78%
    22:00 +12°C° 0 mm 2 mps 738 mmHg 80%
    23:00 +12°C° 0 mm 2 mps 738 mmHg 82%

    Day after tomorrow, 20 November, Tuesday

    Time Temperature Precipitation Wind Pressure Humidity
    00:00 +10°C° 0 mm 2 mps 738 mmHg 84%
    01:00 +10°C° 0 mm 2 mps 738 mmHg 85%
    02:00 +9°C° 0 mm 3 mps 738 mmHg 86%
    03:00 +9°C° 0 mm 3 mps 737 mmHg 87%
    04:00 +9°C° 0 mm 3 mps 737 mmHg 88%
    05:00 +8°C° 0 mm 2 mps 737 mmHg 88%
    06:00 +8°C° 0 mm 2 mps 737 mmHg 88%
    07:00 +9°C° 0 mm 2 mps 738 mmHg 85%
    08:00 +10°C° 0 mm 2 mps 738 mmHg 81%
    09:00 +12°C° 0 mm 2 mps 738 mmHg 77%
    10:00 +12°C° 0.1 mm 2 mps 738 mmHg 76%
    11:00 +13°C° 0.1 mm 2 mps 738 mmHg 75%
    12:00 +12°C° 0.1 mm 3 mps 738 mmHg 74%
    13:00 +13°C° 0.4 mm 2 mps 738 mmHg 78%
    14:00 +13°C° 0.4 mm 2 mps 737 mmHg 82%
    15:00 +13°C° 0.4 mm 2 mps 737 mmHg 86%
    16:00 +12°C° 0.4 mm 2 mps 737 mmHg 87%
    17:00 +12°C° 0.4 mm 2 mps 737 mmHg 88%
    18:00 +12°C° 0.4 mm 2 mps 738 mmHg 90%
    19:00 +12°C° 0.6 mm 2 mps 738 mmHg 90%
    20:00 +12°C° 0.6 mm 2 mps 738 mmHg 89%
    21:00 +12°C° 0.6 mm 2 mps 738 mmHg 89%
    22:00 +10°C° 0.2 mm 2 mps 739 mmHg 89%
    23:00 +10°C° 0.2 mm 2 mps 739 mmHg 89%

    21 November, Wednesday

    Time Temperature Precipitation Wind Pressure Humidity
    00:00 +10°C° 0.2 mm 2 mps 739 mmHg 89%
    01:00 +9°C° 0 mm 3 mps 739 mmHg 89%
    02:00 +9°C° 0 mm 3 mps 740 mmHg 89%
    03:00 +9°C° 0 mm 3 mps 740 mmHg 89%
    04:00 +8°C° 0 mm 3 mps 740 mmHg 89%
    05:00 +8°C° 0 mm 3 mps 741 mmHg 88%
    06:00 +8°C° 0 mm 3 mps 741 mmHg 88%
    07:00 +9°C° 0 mm 3 mps 742 mmHg 84%
    08:00 +10°C° 0 mm 3 mps 743 mmHg 81%
    09:00 +10°C° 0 mm 4 mps 743 mmHg 78%
    10:00 +12°C° 0 mm 4 mps 744 mmHg 72%
    11:00 +13°C° 0 mm 4 mps 744 mmHg 65%
    12:00 +14°C° 0 mm 4 mps 744 mmHg 59%
    13:00 +14°C° 0 mm 4 mps 744 mmHg 58%
    14:00 +14°C° 0 mm 4 mps 744 mmHg 57%
    15:00 +13°C° 0 mm 4 mps 745 mmHg 56%
    16:00 +12°C° 0 mm 3 mps 745 mmHg 61%
    17:00 +11°C° 0 mm 3 mps 746 mmHg 65%
    18:00 +10°C° 0 mm 2 mps 746 mmHg 70%
    19:00 +10°C° 0 mm 2 mps 746 mmHg 70%
    20:00 +10°C° 0 mm 2 mps 747 mmHg 69%
    21:00 +10°C° 0 mm 1 mps 747 mmHg 69%
    22:00 +9°C° 0 mm 2 mps 747 mmHg 69%
    23:00 +9°C° 0 mm 2 mps 747 mmHg 70%

    22 November, Thursday

    Time Temperature Precipitation Wind Pressure Humidity
    00:00 +9°C° 0 mm 2 mps 747 mmHg 70%
    01:00 +8°C° 0 mm 2 mps 747 mmHg 70%
    02:00 +8°C° 0 mm 2 mps 747 mmHg 69%
    03:00 +8°C° 0 mm 2 mps 747 mmHg 68%
    04:00 +8°C° 0 mm 2 mps 747 mmHg 68%
    05:00 +8°C° 0 mm 2 mps 747 mmHg 67%
    06:00 +8°C° 0 mm 2 mps 747 mmHg 67%
    07:00 +9°C° 0 mm 2 mps 747 mmHg 64%
    08:00 +10°C° 0 mm 2 mps 748 mmHg 60%
    09:00 +12°C° 0 mm 2 mps 748 mmHg 57%
    10:00 +13°C° 0 mm 2 mps 748 mmHg 54%
    11:00 +13°C° 0 mm 3 mps 748 mmHg 50%
    12:00 +16°C° 0 mm 3 mps 748 mmHg 47%
    13:00 +16°C° 0 mm 3 mps 748 mmHg 48%
    14:00 +14°C° 0 mm 3 mps 748 mmHg 48%
    15:00 +14°C° 0 mm 3 mps 748 mmHg 49%
    16:00 +13°C° 0 mm 3 mps 748 mmHg 54%
    17:00 +13°C° 0 mm 2 mps 749 mmHg 59%
    18:00 +10°C° 0 mm 2 mps 749 mmHg 63%
    19:00 +10°C° 0 mm 2 mps 750 mmHg 64%
    20:00 +10°C° 0 mm 2 mps 750 mmHg 65%
    21:00 +10°C° 0 mm 2 mps 751 mmHg 65%
    22:00 +9°C° 0 mm 2 mps 751 mmHg 65%
    23:00 +9°C° 0 mm 2 mps 751 mmHg 64%

    23 November, Friday

    Time Temperature Precipitation Wind Pressure Humidity
    00:00 +9°C° 0 mm 2 mps 751 mmHg 64%
    01:00 +9°C° 0 mm 2 mps 751 mmHg 64%
    02:00 +9°C° 0 mm 2 mps 751 mmHg 63%
    03:00 +8°C° 0 mm 2 mps 751 mmHg 63%
    04:00 +8°C° 0 mm 2 mps 751 mmHg 63%
    05:00 +8°C° 0 mm 2 mps 751 mmHg 63%
    06:00 +8°C° 0 mm 2 mps 752 mmHg 62%
    07:00 +9°C° 0 mm 2 mps 752 mmHg 59%
    08:00 +10°C° 0 mm 2 mps 752 mmHg 56%
    09:00 +12°C° 0 mm 2 mps 753 mmHg 53%
    10:00 +13°C° 0 mm 2 mps 752 mmHg 51%
    11:00 +14°C° 0 mm 1 mps 752 mmHg 48%
    12:00 +16°C° 0 mm 1 mps 752 mmHg 46%
    13:00 +16°C° 0 mm 1 mps 752 mmHg 47%
    14:00 +16°C° 0 mm 1 mps 752 mmHg 47%
    15:00 +16°C° 0 mm 1 mps 751 mmHg 48%
    16:00 +15°C° 0 mm 1 mps 751 mmHg 52%
    17:00 +14°C° 0 mm 1 mps 752 mmHg 56%
    18:00 +12°C° 0 mm 1 mps 752 mmHg 60%
    19:00 +12°C° 0 mm 1 mps 752 mmHg 61%
    20:00 +12°C° 0 mm 1 mps 752 mmHg 62%
    21:00 +12°C° 0 mm 1 mps 752 mmHg 63%
    22:00 +12°C° 0 mm 1 mps 752 mmHg 63%
    23:00 +12°C° 0 mm 1 mps 752 mmHg 64%
    Show more